Location: Bergnerzell
(49.1816°N, 10.2565°E)
Time: 08:14:38
(UTC+00:00)

Cosmos 2082 Rocket - Pass Details

Date: 23 May 2024
Orbit: 832 x 853 km, 71.0° (Epoch: 15 June)

Event Time Altitude Azimuth Distance (km) Brightness Sun altitude
Exits shadow 00:07:01 35° 187° (S) 1,340 2.7 -19.3°
Maximum altitude 00:09:25 69° 114° (ESE) 912 2.3 -19.2°
Drops below altitude 10° 00:15:07 10° 32° (NNE) 2,492 5.7 -18.9°
Sets 00:17:35 0° 31° (NNE) 3,431 6.8 -18.8°
